STARLINK-34641 (64797 NORAD) Tracking and Keplerian Element Data

This shows tracking and keplerian element data for the satellite.

Feedback or suggestion? Click here.




ElementValue
Catalog64797
NameSTARLINK-34641
Epoch Orbit583
Epoch Day354.25003472
Epoch Year2025
RAAN334.7754
Inclination70.0005
Eccentricity0.0002943
Argument of Perigee279.826
Mean Anonmoly191.2015
Mean Motion14.99134363
Decay Rate7.513E-05
L11 64797U 25150H 25354.25003472 .00007513 00000+0 62366-3 0 9999
L22 64797 70.0005 334.7754 0002943 279.8260 191.2015 14.99134363 5830



Live tracking and technical data element details for STARLINK-34641 (NORAD 64797). STARLINK-34641 can be tracked NOW for your location showing map with azimuth and elevation plus other details from your city location.







IsCatalogInMostPopularTable: catalog: 64797, numindb: 3
Update: records affected: 1



GetName: 64797 STARLINK-34641

Hit Count: updated at: Tue, 10 Feb 2026 02:10:15 GMT